Location: ??
(31.9467°N, 34.8903°E)
Time: 18:03:03
(UTC+00:00)

SL-16 R/B - Pass Details

Date: 29 October 2020
Orbit: 842 x 846 km, 71.0° (Epoch: 01 December)

Event Time Altitude Azimuth Distance (km) Brightness Sun altitude
Rises 16:53:56 0° 183° (S) 3,382 5.4 -26.1°
Reaches altitude 10° 16:56:27 10° 177° (S) 2,451 4.6 -26.7°
Enters shadow 16:57:34 16° 172° (S) 2,056 4.1 -26.9°
